Flag for Portugal Weather past 2 weeks in Funchal, Madeira, Portugal

Now
59 °F

Passing clouds.


Feels Like: 59 °F
Forecast: 60 / 70 °F
Wind: 5 mph from West

Location: Aeroporto Da Madeira

Current Time: Apr 22, 2015 at 5:21:35 AM

Latest Report: Apr 22, 2015 at 4:30 AM


Visibility: N/A

Pressure: 30.12 "Hg

Humidity: 77%

Dew point: 52 °F

Location of FunchalLocation

Historic Weather in Funchal — Graph

°F

Funchal temperature yesterday

Maximum temperature yesterday: 66 °F (at 1:30 PM)
Minimum temperature yesterday: 55 °F (at 6:00 AM)
Average temperature yesterday: 61 °F

Past Weeks' High & Low Weather Summary

 TemperatureHumidityPressure
High70 °F (Apr 12, 2:00 PM)94% (Apr 13, 12:30 PM)30.30 "Hg (Apr 13, 12:30 PM)
Low52 °F (Apr 14, 5:00 AM)49% (Apr 21, 10:00 AM)29.83 "Hg (Apr 7, 4:00 AM)
Average61 °F70%30.11 "Hg
* Reported Apr 7 4:00 AM — Apr 22 4:00 AM, Funchal, Weather by CustomWeather, © 2015

Note: Actual official high and low records may vary slightly from our data, if they occured in-between our weather recording intervals... More about our weather records

Advertising

Funchal weather history for previous 24 hours

 ConditionsComfort  
Time TempWeatherWind HumidityBarometerVisibility
4:00 AM
Wed, Apr 22
59 °FPassing clouds.5 mph77%30.12 "HgN/A
3:30 AM59 °FPassing clouds.6 mph77%30.15 "HgN/A
3:00 AM59 °FPassing clouds.5 mph77%30.15 "HgN/A
2:30 AM59 °FPassing clouds.6 mph77%30.15 "HgN/A
2:00 AM59 °FPassing clouds.7 mph77%30.15 "HgN/A
1:30 AM59 °FPassing clouds.5 mph77%30.15 "HgN/A
1:00 AM59 °FPassing clouds.3 mph72%30.15 "HgN/A
12:30 AM59 °FPassing clouds.3 mph72%30.15 "HgN/A
12:00 AM59 °FPassing clouds.3 mph72%30.15 "HgN/A
11:30 PM
Tue, Apr 21
59 °FPassing clouds.3 mph72%30.15 "HgN/A
11:00 PM59 °FPassing clouds.5 mph68%30.15 "HgN/A
10:30 PM61 °FScattered clouds.7 mph68%30.15 "HgN/A
10:00 PM61 °FScattered clouds.2 mph68%30.15 "HgN/A
9:30 PM61 °FScattered clouds.5 mph72%30.12 "HgN/A
9:00 PM63 °FScattered clouds.5 mph68%30.12 "HgN/A
8:30 PM63 °FPartly sunny.6 mph68%30.12 "HgN/A
8:00 PM63 °FPartly sunny.5 mph68%30.12 "HgN/A
7:30 PM63 °FPartly sunny.8 mph68%30.09 "HgN/A
7:00 PM63 °FScattered clouds.9 mph64%30.09 "HgN/A
6:30 PM63 °FScattered clouds.7 mph64%30.12 "HgN/A
6:00 PM63 °FScattered clouds.9 mph68%30.12 "HgN/A
5:30 PM64 °FScattered clouds.5 mph64%30.12 "HgN/A
5:00 PM63 °FScattered clouds.8 mph64%30.12 "HgN/A
4:30 PM64 °FScattered clouds.6 mph64%30.12 "HgN/A
4:00 PM64 °FScattered clouds.6 mph60%30.12 "HgN/A
3:30 PM64 °FScattered clouds.5 mph56%30.12 "HgN/A
3:00 PM63 °FScattered clouds.6 mph59%30.12 "HgN/A
2:30 PM64 °FPassing clouds.6 mph60%30.12 "HgN/A
2:00 PM64 °FPassing clouds.8 mph56%30.12 "HgN/A
1:30 PM66 °FPassing clouds.6 mph52%30.12 "HgN/A
1:00 PM64 °FPassing clouds.3 mph60%30.12 "HgN/A
12:30 PM64 °FPassing clouds.9 mph52%30.12 "HgN/A
12:00 PM63 °FPassing clouds.8 mph59%30.12 "HgN/A
11:30 AM64 °FPassing clouds.12 mph60%30.12 "HgN/A
11:00 AM64 °FPassing clouds.9 mph56%30.12 "HgN/A
10:30 AM64 °FPassing clouds.9 mph52%30.12 "HgN/A
10:00 AM64 °FPassing clouds.8 mph49%30.12 "HgN/A
9:30 AM63 °FPassing clouds.7 mph56%30.12 "HgN/A
9:00 AM61 °FPassing clouds.8 mph59%30.12 "HgN/A
8:30 AM57 °FPassing clouds.8 mph67%30.12 "HgN/A
8:00 AM57 °FPassing clouds.7 mph67%30.12 "HgN/A
7:30 AM55 °FPassing clouds.6 mph72%30.12 "HgN/A
7:00 AM55 °FPassing clouds.6 mph72%30.12 "HgN/A
6:30 AM55 °FPassing clouds.5 mph72%30.12 "HgN/A
6:00 AM55 °FPassing clouds.3 mph77%30.12 "HgN/A
5:30 AM57 °FPassing clouds.6 mph72%30.12 "HgN/A
5:00 AM59 °FPassing clouds.6 mph68%30.12 "HgN/A
Weather by CustomWeather, © 2015

See weather overviewHow to use our weather pages